sat.trackr.live / text

‹ back to catalog

STARLINK-11344 [DTC]

NORAD 61688 · 2024-195B

PAYLOAD ACTIVE UNKNOWN

§ Identity

Operator
Country
US
Launch date
2024-10-30
Launch site
AFWTR
Launch vehicle
Mass (kg)
RCS (m²)

Purposes: comms

External: N2YO · Heavens-Above · Gunter

§ Orbital elements

Epoch: 2026-09-21T21:08:04.141536Z

Period
91.74 min
Inclination
53.1588°
Eccentricity
0.0000978
Mean motion
15.69708926 rev/d
Perigee alt
359.1 km
Apogee alt
360.4 km
Semi-major
6,737.9 km
B*
1.1941e-6
RAAN
139.4041°
Arg perigee
75.4648°
Mean anomaly
284.6478°
Rev number
10,984

§ Raw data

STARLINK-11344 [DTC]1 61688U 24195B   26264.88060349 -.00000444  00000+0  11941-5 0  99912 61688  53.1588 139.4041 0000978  75.4648 284.6478 15.69708926109845

JSON: /api/v1/satellites/61688 · /tle

For live sub-satellite position, see the globe view (requires WebGL).

§ Visibility from observer

Set your observer location to see the next 7 days of passes ≥ 10°. The values pass through the URL so the page stays shareable.

No JS? Fill the form by hand. The geolocation button needs JavaScript.